#timestamp,LO_Frequency,Hit 
1503226815.4,286047004.9,N
1503226835.2,286047005.4,N
1503226855.1,286047007.2,N
1503226856.0,286047007.2,N
1503226875.8,286047007.3,N
1503226895.6,286047003.5,N
1503226915.5,286047005.1,N
1503226935.3,286047004.8,N
1503226955.1,286047005.2,N
1503226975.9,286047005.3,N
1503226995.7,286047003.4,N
1503227015.5,286047002.1,N
1503227035.3,286046999.8,N
1503227055.2,286047000.3,N
1503227075.0,286047000.3,N
1503227075.9,286047000.3,N
1503227095.7,286046998.5,N
1503227115.6,286047000.7,N
1503227135.4,286046996.5,N
1503227155.2,286046998.9,N
1503227175.1,286046998.2,N
1503227176.0,286046998.2,N
1503227195.8,286047002.7,N
1503227215.6,286047003.3,N
1503227235.5,286047008.0,N
1503227255.3,286047006.8,N
1503227275.1,286047007.4,N
1503227295.9,286047005.6,N
1503227315.7,286047003.4,N
1503227335.5,286047004.5,N
1503227355.4,286047004.9,N
1503227375.2,286047005.8,N
1503227395.0,286047007.0,N
1503227395.9,286047007.0,N
1503227415.8,286047005.5,N
1503227435.6,286047005.8,N
1503227455.4,286047004.6,N
1503227475.2,286047009.1,N
1503227495.1,286047006.2,N
1503227496.0,286047006.2,N
1503227515.8,286047007.1,N
1503227535.6,286047003.3,N
1503227555.5,286047003.2,N
1503227575.3,286047003.2,N
1503227595.1,286047003.5,N
1503227615.9,286047005.8,N
1503227635.7,286047004.8,N
1503227655.5,286047005.4,N
1503227675.4,286047003.3,N
1503227695.2,286047003.6,N
1503227715.0,286047007.0,N
1503227735.1,286047005.3,N
1503227736.0,286047005.3,P
1503227755.8,286047001.1,P
1503227775.6,286047001.5,N
1503227795.5,286047004.0,N
1503227815.3,286047001.4,N
1503227835.1,286047002.9,N
1503227855.9,286047000.5,N
1503227875.7,286046998.6,N
1503227895.5,286046998.4,N
1503227915.4,286046997.1,N
1503227935.2,286046997.1,N
1503227955.0,286046997.8,N
1503227955.9,286046997.8,N
1503227975.7,286046998.2,N
1503227995.6,286047001.8,N
1503228015.4,286047001.4,N
1503228035.2,286047002.1,N
1503228055.1,286047006.0,N
1503228056.0,286047006.0,N
1503228075.8,286047006.2,N
1503228095.6,286047005.1,N
1503228115.5,286047006.7,N
1503228135.3,286047007.2,N
1503228155.1,286047009.0,N
1503228175.9,286047006.4,N
1503228195.7,286047006.5,N
1503228215.5,286047005.2,N
1503228235.4,286047003.8,N
1503228255.2,286047003.3,N
1503228275.0,286047002.7,N
1503228275.9,286047002.7,N
1503228295.8,286047001.2,N
1503228315.6,286047000.4,N
1503228335.4,286046999.7,N
1503228355.2,286047001.6,N
1503228375.1,286047003.6,N
1503228376.0,286047003.6,N
1503228395.8,286047002.5,N
1503228415.6,286046998.1,N
1503228435.5,286046997.7,N
1503228455.3,286046997.5,N
1503228475.1,286046997.4,N
1503228495.9,286046998.8,N
1503228515.7,286046998.5,N
1503228535.5,286046998.5,N
1503228555.4,286046998.4,N
1503228575.2,286046999.3,N
1503228595.0,286046996.9,N
1503228595.9,286046996.9,N
1503228615.8,286046995.1,N
1503228635.6,286046999.2,N
1503228655.4,286046999.1,N
1503228675.3,286047002.1,N
1503228695.1,286046998.5,N
1503228696.0,286046998.5,N
1503228715.8,286046997.0,N
1503228735.6,286046998.7,N
1503228755.5,286047000.1,N
1503228775.3,286046999.7,N
1503228795.1,286046998.2,N
1503228815.9,286046999.2,N
1503228835.7,286046996.5,N
1503228855.6,286046993.8,P
1503228875.4,286046997.0,N
1503228895.2,286046996.6,N
1503228915.0,286047001.0,N
1503228916.0,286047001.0,N
1503228935.8,286046995.0,N
1503228955.6,286046999.4,N
1503228975.4,286047000.7,N
1503228995.3,286046996.5,N
1503229015.1,286046993.3,N
1503229035.8,286046990.6,P
1503229055.7,286046994.6,N
1503229075.5,286046993.8,N
1503229095.4,286046992.3,P
1503229115.2,286047000.8,N
1503229135.0,286047000.8,N
1503229135.9,286047000.8,N
1503229155.8,286046998.5,N
1503229175.6,286047000.2,N
1503229195.4,286046999.7,N
1503229215.2,286047004.2,N
1503229235.1,286047003.5,N
1503229236.0,286047003.5,N
1503229255.1,286047004.1,N
1503229256.0,286047004.1,N
1503229275.8,286047002.7,N
1503229295.6,286047000.3,N
1503229315.5,286047002.8,N
1503229335.3,286047002.5,N
1503229355.1,286047003.2,N
1503229375.2,286047004.8,N
1503229395.9,286047005.1,N
1503229415.7,286047009.1,N
1503229435.6,286047006.7,N
1503229455.4,286047006.5,N
1503229475.2,286047009.1,N
1503229495.1,286047006.3,N
1503229496.0,286047006.3,N
1503229515.8,286047004.9,N
1503229535.6,286047003.7,N
1503229555.5,286047005.4,N
1503229575.3,286047006.0,N
1503229595.1,286047003.0,N
1503229615.8,286047006.4,N
1503229635.7,286047006.6,N
1503229655.5,286047005.9,N
1503229675.3,286047002.7,N
1503229695.2,286046998.2,N
1503229715.0,286046999.5,N
1503229715.9,286046999.5,N
1503229735.7,286046996.9,N
1503229755.6,286046997.9,N
1503229775.4,286046996.2,N
1503229795.2,286046993.3,N
1503229815.1,286046994.6,N
1503229816.0,286046994.6,N
1503229835.1,286046991.7,N
1503229836.0,286046991.7,N
1503229855.8,286046993.5,N
1503229875.6,286046994.4,N
1503229895.5,286046997.2,N
1503229915.3,286046998.6,N
1503229935.1,286046997.7,N
1503229955.9,286046996.0,N
1503229975.7,286046993.5,N
1503229995.5,286046993.7,N
1503230015.4,286046995.8,N
1503230035.2,286046995.5,N
1503230055.0,286046997.3,N
1503230055.9,286046997.3,N
1503230075.8,286046998.5,N
1503230095.6,286046999.7,N
1503230115.4,286046999.4,N
1503230135.3,286046999.2,N
1503230155.1,286046995.7,N
1503230156.0,286046995.7,N
1503230175.8,286046999.5,N
1503230195.7,286046997.3,N
1503230215.5,286046997.7,N
1503230235.3,286046993.3,N
1503230255.2,286046992.4,P
1503230275.9,286046996.6,N
1503230295.7,286046995.6,N
1503230315.6,286046994.1,P
1503230335.4,286046996.9,P
1503230355.2,286046997.6,N
1503230375.1,286046997.7,N
1503230376.0,286046997.7,N
1503230395.8,286046999.4,N
